sat.trackr.live / text

‹ back to catalog

ONEWEB-0294

NORAD 49083 · 2021-075J

PAYLOAD ACTIVE UNKNOWN

§ Identity

Operator
Country
UK
Launch date
2021-08-21
Launch site
TYMSC
Launch vehicle
Mass (kg)
RCS (m²)

Purposes: comms

External: N2YO · Heavens-Above · Gunter

§ Orbital elements

Epoch: 2026-05-25T01:52:32.045088Z

Period
109.72 min
Inclination
87.8959°
Eccentricity
0.0001480
Mean motion
13.12442965 rev/d
Perigee alt
1,212.6 km
Apogee alt
1,214.8 km
Semi-major
7,591.9 km
B*
-1.0124e-3
RAAN
355.2544°
Arg perigee
91.4235°
Mean anomaly
268.7063°
Rev number
23,154

§ Raw data

ONEWEB-02941 49083U 21075J   26145.07814867 -.00000351  00000+0 -10124-2 0  99982 49083  87.8959 355.2544 0001480  91.4235 268.7063 13.12442965231541

JSON: /api/v1/satellites/49083 · /tle

For live sub-satellite position, see the globe view (requires WebGL).

§ Visibility from observer

Set your observer location to see the next 7 days of passes ≥ 10°. The values pass through the URL so the page stays shareable.

No JS? Fill the form by hand. The geolocation button needs JavaScript.